Powrót do katalogu

COSMOS 1275 DEB

AktywnyPO
NORAD 42158·DEBRIS·🇷🇺 Russia

Wystrzelony Jun 4, 1981 z Plesetsk Cosmodrome

Loading…

Następne Przeloty (najbliższe 24 godziny)

TLE

ŚwieżeSource: Space-Track

Epoka: Sep 13, 2026, 08:19 UTC

1 42158U 81053RW  26256.34687677  .00000991  00000-0  86995-3 0  9995
2 42158  83.0046 116.2102 0099426 159.3278 326.7424 13.82305931643579

Śledź COSMOS 1275 DEB w czasie rzeczywistym z AllMySat

Download on the App Store